[[{"header":{"parameterUnit":"m.s-1","parameterCategory":1,"la1":30.2991,"la2":30.254,"lo1":-89.0895,"lo2":-89.0444,"dy":0.0017,"dx":0.0017,"nx":28,"ny":28,"refTime":"2026-02-14T09:00:00:Z","depth":0,"parameterNumber":2,"parameterNumberName":"U-component_of_WINDS"},"data":[0,0,0,0,0,0,0,0,0,0,0,0,0,0,0,0,0,0,0,0,0,0,0,0,0,0,0,0,0,0,0,0,0,0,0,0,0,0,0,0,0,0,0,0,0,0,0,0,0,0,0,0,0,0,0,0,0,0,2.375,2.3752,0,2.3867,2.3869,2.387,2.3901,2.39,2.39,2.3899,2.4018,2.4022,2.4026,0,0,0,0,0,0,0,0,0,0,0,0,0,2.3554,2.3558,2.375,2.3752,2.3753,2.3867,2.3869,2.387,2.3901,2.39,2.3899,2.3899,2.4017,2.4022,2.4026,0,0,0,0,0,0,0,0,0,0,0,0,0,2.3652,2.3559,2.375,2.3782,2.3786,2.3867,2.3869,2.3871,2.3901,2.39,2.3899,2.3898,2.4016,2.4021,2.4027,2.4084,0,0,2.4045,2.4047,0,0,0,0,0,0,0,0,2.3647,2.3659,2.3776,2.378,2.3785,2.3869,2.3844,2.3942,2.3902,2.3858,2.3899,2.3898,2.3969,2.3979,2.4003,2.4089,2.4094,2.4045,2.4049,2.4051,2.4053,0,0,0,0,0,0,0,2.364,2.3655,2.3797,2.3778,2.3783,2.3791,2.3804,2.3863,2.3918,2.3861,2.3864,2.3877,2.3972,2.3998,2.4006,2.4096,2.4045,2.405,2.4054,2.4056,2.4238,2.4239,0,0,0,0,0,0,2.3627,2.3649,2.3793,2.38,2.3712,2.3796,2.381,2.3843,2.3917,2.3928,2.3878,2.3878,2.3988,2.3999,2.401,2.4083,2.4051,2.4056,2.406,2.4236,2.4238,2.4239,0,0,0,0,0,0,2.3623,2.364,2.3788,2.3725,2.3745,2.38,2.3837,2.3846,2.3872,2.393,2.394,2.3894,2.3988,2.4002,2.4066,2.4088,2.4059,2.4064,2.4235,2.4237,2.4239,2.4228,0,0,0,0,0,0,2.3617,2.3638,2.366,2.3725,2.3748,2.3841,2.3838,2.3849,2.3881,2.3883,2.3948,2.3958,2.3988,2.4057,2.4072,2.4095,2.4069,2.4233,2.4236,2.4238,2.4227,2.423,2.4232,0,0,0,0,0,2.361,2.3652,2.3661,2.3678,2.3776,2.3842,2.3855,2.3889,2.3883,2.3906,2.3944,2.3956,2.4083,2.4063,2.408,2.4106,2.4232,2.4235,2.4238,2.4226,2.4229,2.4232,0,0,0,0,0,0,2.3586,2.3661,2.3672,2.3735,2.3782,2.3847,2.3876,2.3891,2.3941,2.394,2.398,2.3995,2.4056,2.4087,2.4064,2.4166,2.4158,2.4164,2.4143,2.4147,2.4149,2.414,2.4073,0,0,0,0,0,2.3589,2.3636,2.3698,2.3749,2.3772,2.382,2.385,2.3873,2.3923,2.3943,2.3985,2.4034,2.4085,2.4118,2.4168,2.4232,2.4248,2.4258,2.4261,2.4263,2.4268,2.4306,2.4312,2.425,2.425,2.425,0,0,2.3593,2.364,2.3667,2.3745,2.3784,2.3833,2.3837,2.3887,2.3924,2.395,2.4013,2.4047,2.4103,2.4168,2.4199,2.4196,2.4289,2.4267,2.4268,2.4272,2.431,2.4316,2.4321,2.4252,2.4251,2.4251,0,0,2.3627,2.3667,2.3714,2.3753,2.3813,2.3845,2.3857,2.392,2.3943,2.4007,2.4029,2.4074,2.416,2.4201,2.4232,2.4285,2.4298,2.43,2.4313,2.435,2.4355,2.436,2.4379,2.4386,2.4305,2.4305,2.4305,0,2.3625,2.3699,2.3736,2.3787,2.3821,2.3848,2.3897,2.3934,2.4006,2.403,2.4026,2.4137,2.4177,2.4253,2.4266,2.429,2.4305,2.4292,2.4351,2.4356,2.4361,2.438,2.4387,2.4305,2.4305,2.4305,2.4305,0,2.3695,2.3746,2.3777,2.3848,2.3886,2.3935,2.398,2.4014,2.4034,2.4067,2.4133,2.4183,2.4244,2.4264,2.4284,2.4343,2.434,2.4343,2.4336,2.4366,2.4385,2.4393,2.4305,2.4305,2.4305,2.4305,0,0,2.3715,2.3807,2.3818,2.3851,2.392,2.396,2.4012,2.4073,2.4102,2.4152,2.4197,2.4271,2.4276,2.4312,2.4337,2.4369,2.4409,2.4369,2.4371,2.4375,2.4479,2.4475,2.4483,2.4419,2.442,2.4421,2.4474,0,2.3757,2.385,2.3886,2.3961,2.401,2.4038,2.4083,2.4131,2.4164,2.4211,2.4247,2.43,2.4301,2.4324,2.4357,2.4397,2.443,2.4393,2.4461,2.4463,2.4445,2.4493,2.4489,2.4536,2.4482,2.4483,2.4484,0,2.3819,2.387,2.3951,2.4016,2.4038,2.4077,2.4138,2.4182,2.4237,2.4259,2.4301,2.4324,2.4381,2.437,2.4449,2.4423,2.4454,2.4478,2.448,2.4488,2.4475,2.4501,2.4552,2.4559,2.4496,2.4495,2.4494,0,2.3826,2.3915,2.3976,2.4003,2.4081,2.4108,2.4142,2.4196,2.4231,2.4284,2.4308,2.4366,2.4398,2.4443,2.4483,2.4471,2.4558,2.4551,2.4579,2.4578,2.4595,2.4593,2.4651,2.4614,2.4614,2.4614,2.4614,0,2.3869,2.3917,2.398,2.4017,2.4073,2.4115,2.4169,2.4204,2.4253,2.4299,2.4327,2.4369,2.4418,2.4467,2.4498,2.4559,2.4573,2.4593,2.4601,2.4591,2.4588,2.461,2.4608,2.4616,2.4616,2.4615,2.4615,0,2.3886,2.393,2.3997,2.4066,2.4084,2.4122,2.4181,2.4219,2.4255,2.4312,2.4327,2.4383,2.4442,2.4486,2.4562,2.4583,2.4649,2.4657,2.463,2.4634,2.4659,2.4656,2.4733,2.4746,2.4701,2.4701,2.4701,0,2.391,2.3948,2.4022,2.4054,2.4088,2.4139,2.4176,2.4219,2.4256,2.4324,2.4354,2.4415,2.4466,2.456,2.4607,2.4666,2.4676,2.4699,2.4685,2.4674,2.4677,2.4674,2.4679,2.4701,2.4701,2.4701,2.4701,0,2.395,2.397,2.4021,2.4081,2.4124,2.4173,2.4223,2.4248,2.4301,2.4341,2.4402,2.4442,2.4521,2.4582,2.4647,2.4682,2.4701,2.4706,2.4716,2.4705,2.4688,2.4698,2.4635,2.4703,2.4703,2.4703,2.4703,2.4703,2.3971,2.4007,2.4065,2.4122,2.4164,2.421,2.425,2.4291,2.4343,2.441,2.4433,2.4497,2.4554,2.4643,2.4679,2.473,2.473,2.4743,2.4747,2.475,2.4749,2.4681,2.4742,2.4742,2.4742,2.4742,2.4742,0,2.4012,2.4051,2.4104,2.4173,2.4218,2.4233,2.4289,2.4326,2.4382,2.4434,2.4484,2.4556,2.4616,2.4669,2.4731,2.4762,2.4773,2.4777,2.4775,2.4783,2.4745,2.4731,2.4768,2.4768,2.4768,2.4768,2.4768,2.4768,2.4039,2.4101,2.4129,2.4213,2.4252,2.4314,2.4345,2.4389,2.4431,2.4509,2.4559,2.4594,2.4647,2.4714,2.4771,2.4785,2.4807,2.4809,2.4826,2.4789,2.4786,2.4783,2.4769,2.4814,2.4814,2.4859,2.486,2.486]},{"header":{"parameterUnit":"m.s-1","parameterCategory":1,"la1":30.2991,"la2":30.254,"lo1":-89.0895,"lo2":-89.0444,"dy":0.0017,"dx":0.0017,"nx":28,"ny":28,"refTime":"2026-02-14T09:00:00:Z","depth":0,"parameterNumber":3,"parameterNumberName":"V-component_of_WINDS"},"data":[0,0,0,0,0,0,0,0,0,0,0,0,0,0,0,0,0,0,0,0,0,0,0,0,0,0,0,0,0,0,0,0,0,0,0,0,0,0,0,0,0,0,0,0,0,0,0,0,0,0,0,0,0,0,0,0,0,0,-6.5442,-6.5443,0,-6.5513,-6.5514,-6.5515,-6.5434,-6.5431,-6.5428,-6.5426,-6.5493,-6.5498,-6.5502,0,0,0,0,0,0,0,0,0,0,0,0,0,-6.5233,-6.5237,-6.5442,-6.5443,-6.5444,-6.5513,-6.5514,-6.5515,-6.5435,-6.5431,-6.5428,-6.5424,-6.5492,-6.5497,-6.5503,0,0,0,0,0,0,0,0,0,0,0,0,0,-6.5316,-6.5239,-6.5442,-6.5412,-6.541,-6.5513,-6.5514,-6.5515,-6.5436,-6.5431,-6.5427,-6.5422,-6.549,-6.5497,-6.5504,-6.5637,0,0,-6.5525,-6.5528,0,0,0,0,0,0,0,0,-6.5311,-6.5324,-6.5416,-6.5415,-6.5413,-6.546,-6.5465,-6.5556,-6.5437,-6.5426,-6.5425,-6.542,-6.5486,-6.5493,-6.5516,-6.564,-6.5643,-6.5525,-6.553,-6.5533,-6.5535,0,0,0,0,0,0,0,-6.5306,-6.532,-6.547,-6.5417,-6.5415,-6.5394,-6.5401,-6.5482,-6.548,-6.5427,-6.5421,-6.5431,-6.5484,-6.5509,-6.5517,-6.5644,-6.5525,-6.5531,-6.5536,-6.5538,-6.5884,-6.5889,0,0,0,0,0,0,-6.5304,-6.5316,-6.5468,-6.5472,-6.535,-6.5402,-6.5409,-6.545,-6.5479,-6.5479,-6.5435,-6.5427,-6.55,-6.5509,-6.5519,-6.5679,-6.5533,-6.5539,-6.5543,-6.5879,-6.5885,-6.5891,0,0,0,0,0,0,-6.53,-6.5318,-6.5465,-6.5393,-6.541,-6.541,-6.5456,-6.5453,-6.5479,-6.5485,-6.5484,-6.5461,-6.5497,-6.5509,-6.5609,-6.568,-6.5542,-6.5549,-6.5873,-6.5881,-6.5888,-6.5999,0,0,0,0,0,0,-6.5294,-6.5317,-6.5369,-6.5394,-6.5414,-6.5555,-6.546,-6.5458,-6.5492,-6.5482,-6.551,-6.551,-6.5494,-6.5599,-6.5616,-6.5687,-6.5554,-6.5867,-6.5877,-6.5885,-6.5989,-6.6009,-6.6027,0,0,0,0,0,-6.5287,-6.5395,-6.5372,-6.539,-6.5478,-6.556,-6.557,-6.5551,-6.5498,-6.5549,-6.5554,-6.5509,-6.567,-6.561,-6.5629,-6.5703,-6.5862,-6.5874,-6.5885,-6.598,-6.6005,-6.6026,0,0,0,0,0,0,-6.5375,-6.5398,-6.5372,-6.5492,-6.5525,-6.5546,-6.561,-6.5578,-6.5625,-6.5614,-6.5586,-6.5593,-6.57,-6.5711,-6.5644,-6.5834,-6.5757,-6.5772,-6.5823,-6.5847,-6.5866,-6.5861,-6.556,0,0,0,0,0,-6.5409,-6.5474,-6.549,-6.5595,-6.5613,-6.5609,-6.5643,-6.5626,-6.5658,-6.5671,-6.5682,-6.5714,-6.5771,-6.581,-6.5863,-6.599,-6.5995,-6.605,-6.6069,-6.6085,-6.6098,-6.6168,-6.6193,-6.5928,-6.5928,-6.5927,0,0,-6.5478,-6.5499,-6.5542,-6.5613,-6.5636,-6.5704,-6.5621,-6.5695,-6.5745,-6.5681,-6.5778,-6.5788,-6.5821,-6.5936,-6.5987,-6.5948,-6.6173,-6.6099,-6.6111,-6.6116,-6.6182,-6.6207,-6.623,-6.5935,-6.5934,-6.5933,0,0,-6.564,-6.5663,-6.5753,-6.5779,-6.5817,-6.5814,-6.5836,-6.5863,-6.5868,-6.5964,-6.5919,-6.5977,-6.6076,-6.6102,-6.6129,-6.6304,-6.6266,-6.6322,-6.6421,-6.6489,-6.651,-6.6528,-6.6592,-6.6615,-6.6336,-6.6336,-6.6336,0,-6.5722,-6.5823,-6.5803,-6.5882,-6.5915,-6.5864,-6.5955,-6.5981,-6.6033,-6.6057,-6.6013,-6.6139,-6.6157,-6.6278,-6.6322,-6.6344,-6.6369,-6.6318,-6.6509,-6.6527,-6.6544,-6.6604,-6.6628,-6.6343,-6.6342,-6.6341,-6.6341,0,-6.5922,-6.5993,-6.6062,-6.6117,-6.6158,-6.6242,-6.6234,-6.6278,-6.6258,-6.626,-6.6359,-6.638,-6.6438,-6.6465,-6.6445,-6.6585,-6.656,-6.6513,-6.6435,-6.6576,-6.6633,-6.6655,-6.6352,-6.635,-6.6348,-6.6346,0,0,-6.6139,-6.6185,-6.621,-6.6236,-6.6275,-6.6329,-6.6411,-6.647,-6.6509,-6.6547,-6.6615,-6.6702,-6.6661,-6.6691,-6.6673,-6.6733,-6.6873,-6.6679,-6.6679,-6.6715,-6.7029,-6.7064,-6.7091,-6.6848,-6.6852,-6.6855,-6.7026,0,-6.6303,-6.6449,-6.6434,-6.6572,-6.6639,-6.6592,-6.6664,-6.6696,-6.67,-6.6756,-6.676,-6.6823,-6.6762,-6.678,-6.6838,-6.6844,-6.6935,-6.6831,-6.6911,-6.6914,-6.6905,-6.712,-6.7157,-6.7318,-6.7048,-6.7052,-6.7055,0,-6.6512,-6.6562,-6.6707,-6.6739,-6.6766,-6.6831,-6.6885,-6.694,-6.6974,-6.6973,-6.7009,-6.6982,-6.7065,-6.6986,-6.71,-6.7029,-6.7061,-6.7069,-6.7075,-6.7081,-6.6993,-6.7134,-6.7368,-6.7393,-6.7089,-6.7086,-6.7084,0,-6.6658,-6.676,-6.6861,-6.6884,-6.6923,-6.697,-6.6988,-6.7019,-6.7056,-6.7103,-6.7127,-6.7181,-6.7212,-6.7254,-6.7243,-6.7186,-6.736,-6.7279,-6.7361,-6.7362,-6.74,-6.7397,-6.7644,-6.742,-6.742,-6.7419,-6.7419,0,-6.6842,-6.6933,-6.6927,-6.699,-6.7091,-6.7073,-6.7173,-6.7185,-6.7214,-6.7277,-6.7239,-6.7298,-6.728,-6.7338,-6.733,-6.7426,-6.7439,-6.7441,-6.7437,-6.7445,-6.7445,-6.7465,-6.7454,-6.7425,-6.7424,-6.7423,-6.7422,0,-6.7021,-6.7021,-6.7128,-6.7158,-6.7167,-6.7241,-6.7265,-6.7323,-6.7326,-6.7406,-6.7424,-6.7428,-6.7495,-6.7488,-6.7563,-6.7557,-6.7677,-6.766,-6.7666,-6.7663,-6.7746,-6.7738,-6.8014,-6.8049,-6.7802,-6.7805,-6.7806,0,-6.7138,-6.7208,-6.7246,-6.7287,-6.731,-6.7375,-6.7414,-6.74,-6.7442,-6.7489,-6.7542,-6.7606,-6.7657,-6.7767,-6.7775,-6.7833,-6.7817,-6.791,-6.7825,-6.7831,-6.782,-6.7816,-6.7823,-6.7926,-6.7929,-6.7931,-6.7933,0,-6.7348,-6.7345,-6.7403,-6.7463,-6.7512,-6.7557,-6.7598,-6.7633,-6.7623,-6.7672,-6.7742,-6.7782,-6.7861,-6.7925,-6.798,-6.7997,-6.7964,-6.796,-6.7982,-6.799,-6.7992,-6.7993,-6.7712,-6.7954,-6.7952,-6.795,-6.7949,-6.7948,-6.75,-6.7561,-6.7598,-6.7665,-6.7696,-6.7736,-6.7793,-6.7805,-6.7864,-6.7928,-6.7916,-6.7995,-6.8029,-6.81,-6.8123,-6.8184,-6.815,-6.8182,-6.819,-6.8199,-6.8209,-6.7982,-6.8194,-6.8193,-6.8193,-6.8192,-6.8192,0,-6.7708,-6.7731,-6.7793,-6.7854,-6.7907,-6.7874,-6.7919,-6.7965,-6.8036,-6.8072,-6.8124,-6.8205,-6.8269,-6.8284,-6.8344,-6.839,-6.8377,-6.8407,-6.8403,-6.8408,-6.8235,-6.821,-6.8417,-6.8417,-6.8417,-6.8417,-6.8417,-6.8417,-6.7823,-6.7925,-6.7927,-6.8044,-6.8065,-6.8145,-6.8173,-6.821,-6.8239,-6.8333,-6.8387,-6.8397,-6.8425,-6.8487,-6.8544,-6.8547,-6.8571,-6.8607,-6.8604,-6.8442,-6.842,-6.8398,-6.8375,-6.8613,-6.8613,-6.8772,-6.8773,-6.8774]}]]